Aspen, CO

1:52 PM MDT on July 21, 2017 (GMT -0600)
Aspen-Pitkin County / Sardy Field

Weather History for KASE - January, 2013

Change the Weather History Date:

Monday, January 28, 2013

  Actual Average Record
Temperature  
Mean Temperature 26 °F 20 °F  
Max Temperature 36 °F 33 °F 52 °F (1983)
Min Temperature 16 °F 7 °F -7 °F (2017)
Degree Days  
Heating Degree Days 39 45  
Month to date heating degree days 1348 1263  
Since 1 July heating degree days 4598 4984  
Cooling Degree Days 0 0  
Month to date cooling degree days 0 0  
Year to date cooling degree days 0 0  
Moisture  
Dew Point 22 °F    
Average Humidity 74    
Maximum Humidity 92    
Minimum Humidity 56    
Precipitation  
Precipitation 0.16 in 0.03 in 0.20 in (2008)
Month to date precipitation 0.36 0.95  
Year to date precipitation 0.36 0.95  
Sea Level Pressure  
Sea Level Pressure 29.66 in    
Wind  
Wind Speed 6 mph (NNW)    
Max Wind Speed 25 mph    
Max Gust Speed 30 mph    
Visibility 3 miles    
Events Fog , Snow    
T = Trace of Precipitation, MM = Missing Value Source: NWS Daily Summary

Daily Weather History Graph

Daily Weather History Graph

Search for Another Location

Airport or City:

Trip Planner

Search our weather history database for the weather conditions in past years. The results will help you decide how hot, cold, wet, or windy it might be!

Date:

Astronomy

Jan. 28, 2013 Rise Set
Actual Time 7:17 AM MST 5:23 PM MST
Civil Twilight 6:49 AM MST 5:52 PM MST
Nautical Twilight 6:16 AM MST 6:24 PM MST
Astronomical Twilight 5:45 AM MST 6:56 PM MST
Moon 7:20 PM MST (1/28) 7:45 AM MST (1/28)
Length of Visible Light 11h 03m
Length of Day
10h 06m
Full, 97% of the Moon is Illuminated
Jan 28
Full
Feb 3
Last Quarter
Feb 10
New
Feb 17
First Quarter
Feb 25
Full

Hourly Weather History & Observations

Time (MST) Temp. Windchill Dew Point Humidity Pressure Visibility Wind Dir Wind Speed Gust Speed Precip Events Conditions
12:53 AM 30.9 °F 19.4 °F 26.1 °F 82% 29.66 in 9.0 mi SE 17.3 mph - 0.00 in   Mostly Cloudy
1:53 AM 34.0 °F 25.5 °F 19.9 °F 56% 29.63 in 10.0 mi South 11.5 mph - N/A   Partly Cloudy
2:53 AM 26.1 °F - 19.9 °F 78% 29.64 in 10.0 mi Calm Calm - N/A   Clear
3:53 AM 25.0 °F 20.7 °F 19.0 °F 78% 29.61 in 10.0 mi SSW 3.5 mph - N/A   Mostly Cloudy
4:53 AM 28.9 °F 25.2 °F 19.9 °F 69% 29.59 in 10.0 mi NNW 3.5 mph - N/A   Overcast
5:44 AM 26.6 °F 22.6 °F 23.0 °F 86% 29.70 in 2.5 mi NNW 3.5 mph - 0.00 in Snow Light Snow
5:49 AM 26.6 °F 22.6 °F 23.0 °F 86% 29.70 in 3.0 mi NW 3.5 mph - 0.00 in Snow Light Snow
5:53 AM 27.0 °F - 24.1 °F 89% 29.61 in 2.0 mi Calm Calm - 0.00 in Snow Light Snow
5:55 AM 26.6 °F - 24.8 °F 93% 29.70 in 1.5 mi Calm Calm - 0.00 in Snow Light Snow
6:18 AM 26.6 °F 22.6 °F 26.6 °F 100% 29.70 in 1.0 mi SSW 3.5 mph - 0.02 in Snow Light Snow
6:53 AM 28.0 °F - 26.1 °F 92% 29.65 in 1.0 mi Calm Calm - 0.04 in Snow Light Snow
6:57 AM 28.4 °F - 26.6 °F 93% 29.71 in 0.8 mi Calm Calm - 0.01 in Snow Light Snow
7:09 AM 28.4 °F - 26.6 °F 93% 29.69 in 1.0 mi Calm Calm - 0.02 in Snow Light Snow
7:36 AM 28.4 °F 23.3 °F 26.6 °F 93% 29.68 in 3.0 mi South 4.6 mph - 0.02 in Snow Light Snow
7:53 AM 28.0 °F 21.7 °F 26.1 °F 92% 29.62 in 1.8 mi SSE 5.8 mph - 0.02 in Snow Light Snow
7:56 AM 28.4 °F 22.2 °F 26.6 °F 93% 29.70 in 1.5 mi South 5.8 mph - 0.00 in Snow Light Snow
8:53 AM 28.9 °F - 27.0 °F 92% 29.62 in 3.0 mi Calm Calm - 0.01 in   Overcast
9:53 AM 28.9 °F 19.2 °F 25.0 °F 85% 29.62 in 1.5 mi NNW 11.5 mph 18.4 mph 0.00 in Snow Light Snow
10:17 AM 28.4 °F 21.2 °F 24.8 °F 86% 29.68 in 0.5 mi NNW 6.9 mph - 0.00 in Fog , Snow Snow
10:32 AM 28.4 °F 23.3 °F 24.8 °F 86% 29.69 in 0.5 mi North 4.6 mph - 0.01 in Fog , Snow Snow
10:53 AM 28.0 °F 20.8 °F 26.1 °F 92% 29.62 in 0.5 mi North 6.9 mph - 0.03 in Fog , Snow Snow
11:25 AM 28.4 °F 22.2 °F 26.6 °F 93% 29.69 in 1.0 mi North 5.8 mph - 0.02 in Snow Light Snow
11:27 AM 28.4 °F 22.2 °F 26.6 °F 93% 29.69 in 1.0 mi North 5.8 mph - 0.02 in Snow Light Snow
11:53 AM 28.0 °F 20.8 °F 25.0 °F 88% 29.60 in 1.0 mi North 6.9 mph - 0.03 in Snow Light Snow
12:36 PM 28.4 °F 20.4 °F 24.8 °F 86% 29.66 in 3.0 mi NNE 8.1 mph - 0.00 in Snow Light Snow
12:50 PM 28.4 °F 20.4 °F 24.8 °F 86% 29.65 in 3.0 mi NNE 8.1 mph - 0.00 in Snow Light Snow
12:53 PM 28.9 °F 21.9 °F 25.0 °F 85% 29.58 in 3.0 mi NNE 6.9 mph - 0.00 in Snow Light Snow
1:53 PM 30.0 °F - 24.1 °F 79% 29.57 in 4.0 mi Calm Calm - 0.00 in Snow Light Snow
2:00 PM 30.2 °F - 24.8 °F 80% 29.66 in 4.0 mi Calm Calm - 0.00 in Snow Light Snow
2:53 PM 28.0 °F 18.6 °F 24.1 °F 85% 29.62 in 6.0 mi North 10.4 mph - 0.00 in   Overcast
3:53 PM 27.0 °F 18.0 °F 21.0 °F 78% 29.65 in 5.0 mi North 9.2 mph - 0.00 in   Haze
4:44 PM 24.8 °F 15.3 °F 21.2 °F 86% 29.68 in 5.0 mi North 9.2 mph - 0.00 in Snow Light Snow
4:53 PM 24.1 °F 15.2 °F 21.0 °F 88% 29.64 in 4.0 mi North 8.1 mph - 0.00 in Snow Light Snow
5:53 PM 24.1 °F 19.7 °F 21.0 °F 88% 29.65 in 4.0 mi West 3.5 mph - 0.00 in Snow Light Snow
6:00 PM 24.8 °F - 21.2 °F 86% 29.68 in 3.0 mi Calm Calm - 0.00 in Snow Light Snow
6:53 PM 24.1 °F - 21.0 °F 88% 29.64 in 10.0 mi Calm Calm - 0.00 in   Overcast
7:53 PM 21.9 °F 17.2 °F 19.0 °F 89% 29.65 in 10.0 mi West 3.5 mph - N/A   Overcast
8:53 PM 21.0 °F 9.9 °F 17.1 °F 85% 29.65 in 3.0 mi North 10.4 mph - 0.00 in Snow Light Snow
9:23 PM 19.4 °F 7.9 °F 15.8 °F 86% 29.67 in 2.0 mi North 10.4 mph - 0.00 in Snow Light Snow
9:49 PM 19.4 °F 10.4 °F 15.8 °F 86% 29.68 in 1.2 mi North 6.9 mph - 0.00 in Snow Light Snow
9:53 PM 19.0 °F 10.0 °F 16.0 °F 88% 29.67 in 1.2 mi North 6.9 mph - 0.00 in Snow Light Snow
10:06 PM 19.4 °F 10.4 °F 15.8 °F 86% 29.69 in 1.0 mi NNE 6.9 mph - 0.01 in Snow Light Snow
10:15 PM 17.6 °F 7.3 °F 15.8 °F 93% 29.69 in 0.8 mi North 8.1 mph - 0.01 in Snow Light Snow
10:46 PM 17.6 °F 9.3 °F 15.8 °F 93% 29.69 in 1.0 mi North 5.8 mph - 0.02 in Snow Light Snow
10:53 PM 17.1 °F 10.0 °F 15.1 °F 92% 29.70 in 1.0 mi NNW 4.6 mph - 0.02 in Snow Light Snow
11:12 PM 17.6 °F 9.3 °F 14.0 °F 86% 29.70 in 0.8 mi NNW 5.8 mph - 0.01 in Snow Light Snow
11:38 PM 15.8 °F 4.2 °F 12.2 °F 86% 29.70 in 1.0 mi NNW 9.2 mph - 0.01 in Snow Light Snow
11:53 PM 16.0 °F 3.6 °F 12.0 °F 84% 29.72 in 1.0 mi NNW 10.4 mph - 0.01 in Snow Light Snow